Weather History for Spokane Fairchild, WA

Change the Weather History Date:

Thursday, March 27, 2014

  Actual Average Record
Temperature  
Mean Temperature 43 °F -  
Max Temperature 51 °F 48 °F 54 °F (2013)
Min Temperature 35 °F 30 °F 26 °F (1998)
Degree Days  
Heating Degree Days 22    
Moisture  
Dew Point 36 °F    
Average Humidity 87    
Maximum Humidity 100    
Minimum Humidity 50    
Precipitation  
Precipitation 0.04 in - - ()
Sea Level Pressure  
Sea Level Pressure 29.62 in    
Wind  
Wind Speed 10 mph (SSW)    
Max Wind Speed 22 mph    
Max Gust Speed 29 mph    
Visibility 10 miles    
Events Rain    
Averages and records for this station are not official NWS values.
T = Trace of Precipitation, MM = Missing Value Source: NWS Daily Summary

Daily Weather History Graph

Daily Weather History Graph

Search for Another Location

Airport:

Trip Planner

Search our weather history database for the weather conditions in past years. The results will help you decide how hot, cold, wet, or windy it might be!

Date:

Astronomy

Mar. 27, 2014 Rise Set
Actual Time 6:39 AM PDT 7:13 PM PDT
Civil Twilight 6:08 AM PDT 7:44 PM PDT
Nautical Twilight 5:31 AM PDT 8:21 PM PDT
Astronomical Twilight 4:53 AM PDT 8:59 PM PDT
Moon 4:47 AM PDT (3/27) 3:54 PM PDT (3/27)
Length of Visible Light 13h 36m
Length of Day
12h 34m
Waning Crescent, 12% of the Moon is Illuminated
Mar 27
Waning Crescent
Mar 30
New
Apr 7
First Quarter
Apr 15
Full
Apr 22
Last Quarter

Hourly Weather History & Observations

Time (PDT) Temp. Windchill Dew Point Humidity Pressure Visibility Wind Dir Wind Speed Gust Speed Precip Events Conditions
12:12 AM 39.2 °F 33.0 °F 37.4 °F 93% 29.52 in 10.0 mi SSW 9.2 mph - N/A   Mostly Cloudy
12:22 AM 39.2 °F 32.5 °F 37.4 °F 93% 29.53 in 10.0 mi South 10.4 mph - N/A   Overcast
12:27 AM 41.0 °F 35.2 °F 37.4 °F 87% 29.53 in 10.0 mi South 9.2 mph - N/A   Mostly Cloudy
12:58 AM 40.3 °F 34.4 °F 38.1 °F 92% 29.56 in 10.0 mi South 9.2 mph - 0.00 in   Overcast
1:06 AM 39.2 °F 33.0 °F 39.2 °F 100% 29.53 in 10.0 mi SSW 9.2 mph - N/A Rain Light Rain
1:11 AM 39.2 °F 33.6 °F 39.2 °F 100% 29.53 in 10.0 mi SSW 8.1 mph - N/A Rain Light Rain
1:41 AM 39.2 °F 34.2 °F 39.2 °F 100% 29.53 in 9.0 mi South 6.9 mph - N/A Rain Light Rain
1:46 AM 39.2 °F 34.2 °F 39.2 °F 100% 29.53 in 9.0 mi South 6.9 mph - N/A Rain Light Rain
1:51 AM 39.2 °F 33.6 °F 39.2 °F 100% 29.53 in 9.0 mi South 8.1 mph - N/A Rain Light Rain
1:56 AM 39.2 °F 33.6 °F 39.2 °F 100% 29.53 in 10.0 mi South 8.1 mph - N/A Rain Light Rain
1:58 AM 39.2 °F 33.0 °F 38.5 °F 97% 29.56 in 10.0 mi South 9.2 mph - 0.00 in Rain Light Rain
2:03 AM 39.2 °F 34.2 °F 39.2 °F 100% 29.53 in 10.0 mi South 6.9 mph - N/A Rain Light Rain
2:08 AM 39.2 °F 33.6 °F 37.4 °F 93% 29.53 in 10.0 mi South 8.1 mph - N/A Rain Light Rain
2:09 AM 39.2 °F 33.6 °F 37.4 °F 93% 29.53 in 10.0 mi South 8.1 mph - N/A   Overcast
2:14 AM 39.2 °F 34.2 °F 37.4 °F 93% 29.53 in 10.0 mi South 6.9 mph - N/A   Overcast
2:24 AM 39.2 °F 34.2 °F 37.4 °F 93% 29.53 in 10.0 mi SSW 6.9 mph - N/A   Overcast
2:34 AM 39.2 °F 35.0 °F 37.4 °F 93% 29.53 in 10.0 mi SSW 5.8 mph - N/A   Overcast
2:58 AM 38.8 °F 33.2 °F 37.6 °F 95% 29.56 in 10.0 mi SSW 8.1 mph - 0.00 in   Mostly Cloudy
3:06 AM 39.2 °F 33.6 °F 37.4 °F 93% 29.53 in 10.0 mi SSW 8.1 mph - N/A   Mostly Cloudy
3:30 AM 39.2 °F 33.6 °F 37.4 °F 93% 29.53 in 10.0 mi South 8.1 mph - N/A   Overcast
3:40 AM 39.2 °F 32.5 °F 37.4 °F 93% 29.53 in 10.0 mi SSW 10.4 mph - N/A   Overcast
3:42 AM 39.2 °F 33.6 °F 37.4 °F 93% 29.53 in 10.0 mi South 8.1 mph - N/A   Overcast
3:52 AM 39.2 °F 32.5 °F 37.4 °F 93% 29.53 in 10.0 mi SSW 10.4 mph - N/A   Overcast
3:58 AM 38.7 °F 31.4 °F 36.9 °F 93% 29.56 in 10.0 mi SSW 11.5 mph - 0.00 in   Overcast
4:03 AM 39.2 °F 32.5 °F 37.4 °F 93% 29.53 in 10.0 mi SSW 10.4 mph - N/A   Overcast
4:09 AM 39.2 °F 31.6 °F 37.4 °F 93% 29.53 in 10.0 mi South 12.7 mph - N/A   Overcast
4:28 AM 39.2 °F 31.6 °F 35.6 °F 87% 29.54 in 10.0 mi South 12.7 mph - N/A   Overcast
4:38 AM 37.4 °F 29.8 °F 37.4 °F 100% 29.54 in 10.0 mi SSW 11.5 mph - N/A   Overcast
4:58 AM 37.8 °F 31.3 °F 36.0 °F 93% 29.57 in 10.0 mi SSW 9.2 mph - 0.00 in   Overcast
5:13 AM 37.4 °F 29.8 °F 35.6 °F 93% 29.55 in 10.0 mi SSW 11.5 mph - N/A   Overcast
5:28 AM 37.4 °F 30.8 °F 35.6 °F 93% 29.55 in 10.0 mi SSW 9.2 mph - N/A   Overcast
5:29 AM 37.4 °F 30.3 °F 35.6 °F 93% 29.55 in 10.0 mi SSW 10.4 mph - N/A   Overcast
5:58 AM 37.0 °F 29.8 °F 35.8 °F 95% 29.58 in 10.0 mi SSW 10.4 mph - 0.00 in   Overcast
6:58 AM 36.3 °F 30.1 °F 35.1 °F 95% 29.60 in 10.0 mi SSW 8.1 mph - N/A   Overcast
7:00 AM 35.6 °F 28.6 °F 35.6 °F 100% 29.57 in 10.0 mi SSW 9.2 mph - N/A   Overcast
7:20 AM 35.6 °F 29.2 °F 35.6 °F 100% 29.57 in 10.0 mi South 8.1 mph - N/A   Overcast
7:25 AM 35.6 °F 28.0 °F 35.6 °F 100% 29.57 in 10.0 mi South 10.4 mph - N/A   Overcast
7:30 AM 35.6 °F 28.0 °F 35.6 °F 100% 29.58 in 10.0 mi SSW 10.4 mph - N/A   Overcast
7:35 AM 35.6 °F 28.6 °F 33.8 °F 93% 29.58 in 10.0 mi SSW 9.2 mph - N/A   Overcast
7:40 AM 35.6 °F 28.0 °F 33.8 °F 93% 29.58 in 10.0 mi SSW 10.4 mph - N/A   Overcast
7:58 AM 36.0 °F 28.0 °F 34.3 °F 94% 29.62 in 10.0 mi SSW 11.5 mph - 0.00 in   Mostly Cloudy
7:59 AM 35.6 °F 27.5 °F 33.8 °F 93% 29.58 in 10.0 mi SSW 11.5 mph - N/A   Scattered Clouds
8:04 AM 35.6 °F 28.0 °F 33.8 °F 93% 29.58 in 10.0 mi SSW 10.4 mph - N/A   Scattered Clouds
8:05 AM 35.6 °F 27.1 °F 33.8 °F 93% 29.58 in 10.0 mi South 12.7 mph - N/A   Scattered Clouds
8:11 AM 35.6 °F 28.0 °F 33.8 °F 93% 29.58 in 10.0 mi South 10.4 mph - N/A   Scattered Clouds
8:21 AM 35.6 °F 28.0 °F 33.8 °F 93% 29.59 in 10.0 mi SSW 10.4 mph - N/A   Mostly Cloudy
8:30 AM 35.6 °F 28.0 °F 33.8 °F 93% 29.59 in 10.0 mi South 10.4 mph - N/A   Mostly Cloudy
8:55 AM 37.4 °F 29.3 °F 35.6 °F 93% 29.59 in 10.0 mi SSW 12.7 mph - N/A   Scattered Clouds
8:58 AM 37.4 °F 28.9 °F 35.1 °F 91% 29.63 in 10.0 mi South 13.8 mph - 0.00 in   Scattered Clouds
9:03 AM 37.4 °F 27.8 °F 35.6 °F 93% 29.60 in 10.0 mi SSW 17.3 mph - N/A   Scattered Clouds
9:16 AM 39.2 °F 31.2 °F 35.6 °F 87% 29.60 in 10.0 mi SSW 13.8 mph - N/A   Partly Cloudy
9:29 AM 39.2 °F 30.8 °F 35.6 °F 87% 29.61 in 10.0 mi SSW 15.0 mph 21.9 mph N/A   Partly Cloudy
9:32 AM 39.2 °F 30.8 °F 35.6 °F 87% 29.61 in 10.0 mi SSW 15.0 mph - N/A   Clear
9:33 AM 39.2 °F 30.5 °F 35.6 °F 87% 29.61 in 10.0 mi SSW 16.1 mph - N/A   Clear
9:35 AM 39.2 °F 30.5 °F 35.6 °F 87% 29.61 in 10.0 mi SSW 16.1 mph - N/A   Clear
9:58 AM 41.4 °F 33.3 °F 35.8 °F 81% 29.65 in 10.0 mi SSW 16.1 mph - 0.00 in   Light Drizzle
10:18 AM 41.0 °F 33.9 °F 35.6 °F 81% 29.62 in 10.0 mi SSW 12.7 mph - N/A   Light Drizzle
10:38 AM 42.8 °F 35.8 °F 35.6 °F 76% 29.62 in 10.0 mi South 13.8 mph 25.3 mph N/A   Mostly Cloudy
10:44 AM 42.8 °F 35.1 °F 35.6 °F 76% 29.62 in 10.0 mi SSW 16.1 mph - N/A   Light Drizzle
10:54 AM 42.8 °F 34.8 °F 35.6 °F 76% 29.63 in 10.0 mi SSW 17.3 mph 24.2 mph N/A   Overcast
10:58 AM 42.6 °F 34.6 °F 35.8 °F 77% 29.67 in 10.0 mi SSW 17.3 mph 24.2 mph 0.00 in   Overcast
11:38 AM 42.8 °F 35.1 °F 35.6 °F 76% 29.64 in 10.0 mi SSW 16.1 mph - N/A   Overcast
11:58 AM 44.1 °F 36.2 °F 36.0 °F 73% 29.69 in 10.0 mi SSW 18.4 mph - N/A   Overcast
12:58 PM 46.4 °F 39.5 °F 35.6 °F 66% 29.67 in 10.0 mi SSW 17.3 mph - N/A   Mostly Cloudy
1:08 PM 48.2 °F - 35.6 °F 62% 29.65 in 10.0 mi SSW 17.3 mph 25.3 mph N/A   Overcast
1:58 PM 48.0 °F - 35.6 °F 62% 29.67 in 10.0 mi SSW 15.0 mph - N/A   Scattered Clouds
2:04 PM 46.4 °F 39.8 °F 35.6 °F 66% 29.64 in 10.0 mi SW 16.1 mph - N/A Rain Light Rain
2:25 PM 51.8 °F - 33.8 °F 50% 29.64 in 10.0 mi SW 21.9 mph 28.8 mph N/A   Mostly Cloudy
2:58 PM 48.4 °F - 33.6 °F 57% 29.68 in 10.0 mi SW 18.4 mph - 0.00 in   Mostly Cloudy
3:02 PM 48.2 °F - 33.8 °F 58% 29.65 in 10.0 mi SW 17.3 mph - N/A   Light Drizzle
3:14 PM 48.2 °F - 33.8 °F 58% 29.66 in 10.0 mi West 17.3 mph 25.3 mph N/A Rain Light Rain
3:49 PM 41.0 °F 32.8 °F 37.4 °F 87% 29.68 in 10.0 mi WSW 16.1 mph - N/A Rain Light Rain
3:58 PM 41.0 °F 33.9 °F 37.9 °F 89% 29.72 in 10.0 mi WSW 12.7 mph - 0.04 in Rain Light Rain
4:07 PM 42.8 °F 36.6 °F 39.2 °F 87% 29.68 in 10.0 mi WSW 11.5 mph - N/A   Mostly Cloudy
4:58 PM 46.4 °F 39.2 °F 38.3 °F 73% 29.73 in 10.0 mi WSW 18.4 mph - 0.00 in   Partly Cloudy
5:58 PM 46.9 °F - 34.7 °F 62% 29.75 in 10.0 mi WSW 12.7 mph - N/A   Clear
6:58 PM 43.5 °F 40.9 °F 36.1 °F 75% 29.78 in 10.0 mi WSW 4.6 mph - N/A   Clear
7:23 PM 41.0 °F 35.8 °F 35.6 °F 81% 29.74 in 10.0 mi WSW 8.1 mph - N/A   Clear
7:33 PM 41.0 °F 35.8 °F 33.8 °F 76% 29.74 in 10.0 mi SW 8.1 mph - N/A   Clear
7:58 PM 41.0 °F 38.0 °F 34.3 °F 77% 29.81 in 10.0 mi West 4.6 mph - 0.00 in   Mostly Cloudy
8:58 PM 40.8 °F 38.8 °F 34.3 °F 78% 29.83 in 10.0 mi South 3.5 mph - N/A   Mostly Cloudy
9:58 PM 39.4 °F 35.2 °F 32.9 °F 78% 29.83 in 10.0 mi South 5.8 mph - N/A   Scattered Clouds
9:59 PM 39.2 °F 35.0 °F 32.0 °F 75% 29.79 in 10.0 mi South 5.8 mph - N/A   Scattered Clouds
10:21 PM 39.2 °F 35.9 °F 33.8 °F 81% 29.79 in 10.0 mi SSE 4.6 mph - N/A   Overcast
10:57 PM 39.2 °F 33.6 °F 35.6 °F 87% 29.80 in 10.0 mi SSE 8.1 mph - N/A Rain Light Rain
10:58 PM 39.4 °F 33.8 °F 36.0 °F 88% 29.84 in 10.0 mi SSE 8.1 mph - 0.00 in Rain Light Rain
11:10 PM 39.2 °F 33.6 °F 35.6 °F 87% 29.81 in 10.0 mi SSE 8.1 mph - N/A   Overcast
11:58 PM 37.9 °F 31.5 °F 34.9 °F 89% 29.86 in 10.0 mi South 9.2 mph - 0.00 in   Scattered Clouds